Time,TemperatureF,DewpointF,PressureIn,WindDirection,WindDirectionDegrees,WindSpeedMPH,WindSpeedGustMPH,Humidity,HourlyPrecipIn,Conditions,Clouds,dailyrainin,SoftwareType,DateUTC
2013-03-09 13:19:00,60.2,35.8,30.14,SSE,158,3.0,4.0,40,0.00,,,0.00,Wunderground v.1.15,2013-03-09 19:19:00,
2013-03-09 13:20:00,60.2,35.8,30.14,SSW,194,4.0,4.0,40,0.00,,,0.00,Wunderground v.1.15,2013-03-09 19:20:00,
2013-03-09 13:22:00,60.2,34.5,30.14,SW,221,4.0,8.0,38,0.00,,,0.00,Wunderground v.1.15,2013-03-09 19:22:00,
2013-03-09 13:25:00,60.3,35.9,30.14,SSE,158,4.0,8.0,40,0.00,,,0.00,Wunderground v.1.15,2013-03-09 19:25:00,
2013-03-09 13:30:00,60.5,36.0,30.13,South,175,3.0,4.0,40,0.00,,,0.00,Wunderground v.1.15,2013-03-09 19:30:00,
2013-03-09 13:35:00,60.6,37.4,30.13,ESE,123,2.0,4.0,42,0.00,,,0.00,Wunderground v.1.15,2013-03-09 19:35:00,
2013-03-09 13:40:00,60.7,38.6,30.13,ENE,66,1.0,4.0,44,0.00,,,0.00,Wunderground v.1.15,2013-03-09 19:40:00,
2013-03-09 13:45:00,60.8,37.5,30.13,East,88,1.0,4.0,42,0.00,,,0.00,Wunderground v.1.15,2013-03-09 19:45:00,
2013-03-09 13:50:00,61.2,38.5,30.13,East,82,2.0,5.0,43,0.00,,,0.00,Wunderground v.1.15,2013-03-09 19:50:00,
2013-03-09 13:55:00,61.5,38.2,30.12,ENE,71,3.0,5.0,42,0.00,,,0.00,Wunderground v.1.15,2013-03-09 19:55:00,
2013-03-09 14:02:00,61.3,37.4,30.12,ENE,78,4.0,4.0,41,0.00,,,0.00,Wunderground v.1.15,2013-03-09 20:02:00,
2013-03-09 14:08:00,62.1,37.5,30.12,East,82,5.0,5.0,40,0.00,,,0.00,Wunderground v.1.15,2013-03-09 20:08:00,
2013-03-09 14:13:00,62.0,37.4,30.12,East,87,3.0,5.0,40,0.00,,,0.00,Wunderground v.1.15,2013-03-09 20:13:00,
2013-03-09 14:18:00,62.3,37.0,30.11,South,184,3.0,5.0,39,0.00,,,0.00,Wunderground v.1.15,2013-03-09 20:18:00,
2013-03-09 14:23:00,62.9,37.5,30.11,SSE,147,3.0,5.0,39,0.00,,,0.00,Wunderground v.1.15,2013-03-09 20:23:00,
2013-03-09 14:29:00,63.0,36.3,30.11,SE,132,2.0,5.0,37,0.00,,,0.00,Wunderground v.1.15,2013-03-09 20:29:00,
2013-03-09 14:34:00,63.0,37.0,30.11,ESE,114,2.0,3.0,38,0.00,,,0.00,Wunderground v.1.15,2013-03-09 20:34:00,
2013-03-09 14:40:00,63.2,36.5,30.11,SSW,194,2.0,3.0,37,0.00,,,0.00,Wunderground v.1.15,2013-03-09 20:40:00,
2013-03-09 14:45:00,62.8,38.1,30.11,ENE,77,2.0,3.0,40,0.00,,,0.00,Wunderground v.1.15,2013-03-09 20:45:00,
2013-03-09 14:50:00,62.4,40.2,30.10,East,87,3.0,4.0,44,0.00,,,0.00,Wunderground v.1.15,2013-03-09 20:50:00,
2013-03-09 14:55:00,62.1,41.1,30.10,ENE,69,2.0,3.0,46,0.00,,,0.00,Wunderground v.1.15,2013-03-09 20:55:00,
2013-03-09 15:26:00,65.6,36.5,30.08,WSW,238,4.0,8.0,34,0.00,,,0.00,Wunderground v.1.15,2013-03-09 21:26:00,
2013-03-09 15:32:00,65.2,33.8,30.08,SSW,209,6.0,11.0,31,0.00,,,0.00,Wunderground v.1.15,2013-03-09 21:32:00,
2013-03-09 15:37:00,64.6,33.3,30.08,SW,236,6.0,8.0,31,0.00,,,0.00,Wunderground v.1.15,2013-03-09 21:37:00,
2013-03-09 15:42:00,63.8,35.6,30.08,SSE,160,5.0,8.0,35,0.00,,,0.00,Wunderground v.1.15,2013-03-09 21:42:00,
2013-03-09 15:47:00,63.3,34.4,30.08,SE,141,4.0,8.0,34,0.00,,,0.00,Wunderground v.1.15,2013-03-09 21:47:00,
2013-03-09 15:52:00,63.0,34.2,30.08,SSE,165,3.0,8.0,34,0.00,,,0.00,Wunderground v.1.15,2013-03-09 21:52:00,
2013-03-09 15:57:00,62.7,35.3,30.08,South,169,3.0,8.0,36,0.00,,,0.00,Wunderground v.1.15,2013-03-09 21:57:00,
2013-03-09 16:02:00,62.6,35.3,30.08,SSE,165,4.0,4.0,36,0.00,,,0.00,Wunderground v.1.15,2013-03-09 22:02:00,
2013-03-09 16:07:00,62.8,36.1,30.08,SSW,195,3.0,4.0,37,0.00,,,0.00,Wunderground v.1.15,2013-03-09 22:07:00,